[[{"header":{"parameterUnit":"m.s-1","parameterCategory":1,"la1":30.2991,"la2":30.254,"lo1":-89.0895,"lo2":-89.0444,"dy":0.0017,"dx":0.0017,"nx":28,"ny":28,"refTime":"2024-03-01T03:00:00:Z","depth":0,"parameterNumber":2,"parameterNumberName":"U-component_of_WINDS"},"data":[0,0,0,0,0,0,0,0,0,0,0,0,0,0,0,0,0,0,0,0,0,0,0,0,0,0,0,0,0,0,0,0,0,0,0,0,0,0,0,0,0,0,0,0,0,0,0,0,0,0,0,0,0,0,0,0,0,0,-1.0801,-1.0803,0,-1.0997,-1.1,-1.1002,-1.1087,-1.1087,-1.1086,-1.1086,-1.1285,-1.129,-1.1296,0,0,0,0,0,0,0,0,0,0,0,0,0,-1.0499,-1.0504,-1.0801,-1.0804,-1.0806,-1.0997,-1.1,-1.1002,-1.1087,-1.1087,-1.1086,-1.1086,-1.1283,-1.1289,-1.1296,0,0,0,0,0,0,0,0,0,0,0,0,0,-1.0656,-1.0505,-1.0801,-1.0871,-1.088,-1.0996,-1.1,-1.1003,-1.1087,-1.1087,-1.1086,-1.1086,-1.1281,-1.1289,-1.1297,-1.1358,0,0,-1.1323,-1.1326,0,0,0,0,0,0,0,0,-1.0647,-1.0667,-1.0859,-1.0867,-1.0876,-1.1017,-1.0966,-1.1122,-1.1087,-1.1008,-1.1086,-1.1085,-1.1196,-1.1211,-1.1249,-1.1367,-1.1375,-1.1323,-1.1328,-1.1332,-1.1334,0,0,0,0,0,0,0,-1.0636,-1.0659,-1.0879,-1.0861,-1.0872,-1.0893,-1.0915,-1.0996,-1.1102,-1.1015,-1.1022,-1.1044,-1.1201,-1.1241,-1.1254,-1.1378,-1.1323,-1.1331,-1.1336,-1.1339,-1.1556,-1.1557,0,0,0,0,0,0,-1.0613,-1.0649,-1.0873,-1.0885,-1.0758,-1.0898,-1.0923,-1.0972,-1.1102,-1.1121,-1.1044,-1.1047,-1.1227,-1.1244,-1.1261,-1.1341,-1.1332,-1.134,-1.1345,-1.1555,-1.1556,-1.1557,0,0,0,0,0,0,-1.0607,-1.0633,-1.0865,-1.0769,-1.08,-1.0904,-1.0959,-1.0976,-1.1017,-1.1123,-1.1143,-1.1065,-1.1227,-1.125,-1.1333,-1.1349,-1.1344,-1.1351,-1.1554,-1.1556,-1.1557,-1.1501,0,0,0,0,0,0,-1.0598,-1.063,-1.0654,-1.0769,-1.0805,-1.0933,-1.096,-1.0981,-1.1031,-1.1037,-1.1149,-1.1167,-1.1228,-1.132,-1.1342,-1.1361,-1.1358,-1.1553,-1.1555,-1.1556,-1.1501,-1.15,-1.1498,0,0,0,0,0,-1.0586,-1.063,-1.0655,-1.0681,-1.0838,-1.0934,-1.0955,-1.1025,-1.1032,-1.1057,-1.1126,-1.1163,-1.1344,-1.1328,-1.1353,-1.1375,-1.1553,-1.1554,-1.1556,-1.1502,-1.15,-1.1498,0,0,0,0,0,0,-1.0514,-1.0646,-1.0675,-1.0758,-1.0834,-1.0948,-1.0983,-1.1021,-1.1097,-1.1099,-1.1183,-1.1207,-1.1283,-1.1337,-1.1317,-1.144,-1.1451,-1.1458,-1.1402,-1.1401,-1.1399,-1.1385,-1.1365,0,0,0,0,0,-1.0508,-1.0576,-1.0687,-1.0749,-1.0786,-1.0877,-1.0922,-1.097,-1.1052,-1.1085,-1.116,-1.1238,-1.1312,-1.1359,-1.1434,-1.151,-1.1535,-1.1537,-1.1535,-1.1533,-1.1538,-1.1582,-1.1584,-1.1563,-1.1563,-1.1562,0,0,-1.0495,-1.0576,-1.0614,-1.0737,-1.0802,-1.087,-1.0904,-1.0975,-1.1026,-1.1096,-1.1179,-1.1237,-1.1329,-1.1409,-1.1448,-1.1456,-1.1549,-1.1535,-1.1533,-1.1539,-1.1584,-1.1586,-1.1588,-1.1564,-1.1563,-1.1563,0,0,-1.0507,-1.0575,-1.0634,-1.0699,-1.0797,-1.0857,-1.0871,-1.098,-1.1021,-1.1106,-1.116,-1.1222,-1.1348,-1.1412,-1.1461,-1.1497,-1.1534,-1.1519,-1.151,-1.1552,-1.1554,-1.1556,-1.1568,-1.1572,-1.1523,-1.1523,-1.1523,0,-1.0479,-1.0585,-1.0659,-1.0727,-1.078,-1.0846,-1.0906,-1.0965,-1.1082,-1.1116,-1.1124,-1.1285,-1.1352,-1.1447,-1.1456,-1.1493,-1.1512,-1.1507,-1.1547,-1.155,-1.1553,-1.1566,-1.1571,-1.1521,-1.1521,-1.1521,-1.1521,0,-1.0545,-1.0617,-1.0653,-1.0765,-1.0821,-1.0885,-1.0969,-1.1017,-1.1059,-1.1118,-1.1204,-1.1287,-1.138,-1.1406,-1.1448,-1.1507,-1.151,-1.1531,-1.1545,-1.1551,-1.1565,-1.1571,-1.1517,-1.1518,-1.1519,-1.1519,0,0,-1.0518,-1.067,-1.0682,-1.0734,-1.0847,-1.0904,-1.097,-1.1061,-1.11,-1.1178,-1.1236,-1.1341,-1.1362,-1.1417,-1.1467,-1.1504,-1.1527,-1.1522,-1.1525,-1.152,-1.1598,-1.1581,-1.1586,-1.1552,-1.1554,-1.1555,-1.159,0,-1.0545,-1.0668,-1.0737,-1.083,-1.0898,-1.0962,-1.102,-1.1095,-1.1152,-1.1217,-1.128,-1.1353,-1.1375,-1.1409,-1.1448,-1.1516,-1.1544,-1.1514,-1.1606,-1.1609,-1.1582,-1.1593,-1.1576,-1.1606,-1.1596,-1.1597,-1.1598,0,-1.0594,-1.0672,-1.0772,-1.0877,-1.0908,-1.0959,-1.1048,-1.1109,-1.1195,-1.1234,-1.1296,-1.1346,-1.1418,-1.1425,-1.1525,-1.1503,-1.1545,-1.1583,-1.1586,-1.1598,-1.1604,-1.1605,-1.1617,-1.1621,-1.1607,-1.1606,-1.1606,0,-1.0564,-1.0693,-1.077,-1.0812,-1.0937,-1.0971,-1.1025,-1.1111,-1.1161,-1.1238,-1.1272,-1.1356,-1.1402,-1.1466,-1.1537,-1.1536,-1.163,-1.1643,-1.1664,-1.1662,-1.1681,-1.1679,-1.17,-1.1707,-1.1707,-1.1707,-1.1707,0,-1.0588,-1.0647,-1.0759,-1.0806,-1.0873,-1.0952,-1.1017,-1.1075,-1.1151,-1.121,-1.127,-1.1325,-1.1415,-1.148,-1.1536,-1.161,-1.163,-1.1664,-1.1678,-1.1659,-1.1654,-1.1687,-1.1687,-1.1708,-1.1708,-1.1708,-1.1707,0,-1.0566,-1.0643,-1.0731,-1.0842,-1.0871,-1.0916,-1.1011,-1.1059,-1.1119,-1.1193,-1.1215,-1.1309,-1.1389,-1.1466,-1.1573,-1.1611,-1.1685,-1.1703,-1.1656,-1.1664,-1.1681,-1.1678,-1.1723,-1.1733,-1.1733,-1.1733,-1.1733,0,-1.0576,-1.0623,-1.0739,-1.0784,-1.0836,-1.0906,-1.0958,-1.1037,-1.1088,-1.119,-1.1225,-1.131,-1.1382,-1.1506,-1.1584,-1.1666,-1.1687,-1.1697,-1.17,-1.1679,-1.1688,-1.1684,-1.1689,-1.1695,-1.1695,-1.1695,-1.1694,0,-1.0586,-1.0622,-1.0695,-1.0781,-1.0841,-1.0912,-1.0986,-1.1018,-1.1111,-1.1165,-1.1248,-1.1304,-1.1413,-1.1496,-1.1587,-1.1642,-1.1684,-1.1693,-1.1702,-1.1683,-1.1654,-1.167,-1.1651,-1.1692,-1.1692,-1.1692,-1.1692,-1.1692,-1.0582,-1.0626,-1.0715,-1.0794,-1.0857,-1.0924,-1.0975,-1.1041,-1.1112,-1.1208,-1.125,-1.1333,-1.1418,-1.1545,-1.1598,-1.1665,-1.1675,-1.1688,-1.1691,-1.1694,-1.1689,-1.1643,-1.1681,-1.1682,-1.1682,-1.1682,-1.1682,0,-1.0595,-1.0655,-1.0727,-1.0828,-1.089,-1.0924,-1.1007,-1.1056,-1.1129,-1.1205,-1.1274,-1.1369,-1.145,-1.1534,-1.1619,-1.1656,-1.1677,-1.1676,-1.1674,-1.1686,-1.1676,-1.1659,-1.1657,-1.1657,-1.1657,-1.1657,-1.1657,-1.1657,-1.061,-1.0687,-1.0733,-1.0842,-1.0902,-1.0985,-1.1029,-1.1091,-1.1153,-1.1256,-1.1324,-1.1378,-1.1457,-1.1549,-1.1624,-1.1647,-1.1676,-1.1669,-1.1696,-1.1685,-1.1687,-1.1688,-1.1673,-1.1674,-1.1674,-1.1702,-1.1702,-1.1702]},{"header":{"parameterUnit":"m.s-1","parameterCategory":1,"la1":30.2991,"la2":30.254,"lo1":-89.0895,"lo2":-89.0444,"dy":0.0017,"dx":0.0017,"nx":28,"ny":28,"refTime":"2024-03-01T03:00:00:Z","depth":0,"parameterNumber":3,"parameterNumberName":"V-component_of_WINDS"},"data":[0,0,0,0,0,0,0,0,0,0,0,0,0,0,0,0,0,0,0,0,0,0,0,0,0,0,0,0,0,0,0,0,0,0,0,0,0,0,0,0,0,0,0,0,0,0,0,0,0,0,0,0,0,0,0,0,0,0,2.8352,2.8355,0,2.8587,2.859,2.8592,2.8664,2.8663,2.8662,2.8661,2.8896,2.8903,2.891,0,0,0,0,0,0,0,0,0,0,0,0,0,2.7959,2.7965,2.8352,2.8355,2.8358,2.8587,2.859,2.8593,2.8665,2.8663,2.8662,2.8661,2.8893,2.8902,2.8911,0,0,0,0,0,0,0,0,0,0,0,0,0,2.8155,2.7968,2.8351,2.8421,2.843,2.8586,2.859,2.8594,2.8665,2.8663,2.8661,2.866,2.8891,2.8901,2.8912,2.9014,0,0,2.8946,2.895,0,0,0,0,0,0,0,0,2.8144,2.8169,2.8408,2.8417,2.8427,2.8595,2.8537,2.8734,2.8665,2.8575,2.8661,2.8659,2.8797,2.8815,2.8863,2.9025,2.9035,2.8947,2.8953,2.8958,2.8961,0,0,0,0,0,0,0,2.813,2.8159,2.8445,2.8411,2.8423,2.8439,2.8465,2.8575,2.8692,2.8583,2.8589,2.8616,2.8801,2.8852,2.8869,2.9038,2.8946,2.8956,2.8963,2.8967,2.9294,2.9297,0,0,0,0,0,0,2.8105,2.8148,2.8437,2.8452,2.8278,2.8447,2.8476,2.8542,2.8692,2.8713,2.8617,2.8619,2.8834,2.8856,2.8877,2.9007,2.8958,2.8968,2.8974,2.9292,2.9295,2.9297,0,0,0,0,0,0,2.8097,2.813,2.8428,2.8301,2.8341,2.8456,2.8529,2.8548,2.8599,2.8718,2.8738,2.8648,2.8834,2.8862,2.898,2.9016,2.8973,2.8983,2.929,2.9293,2.9296,2.9266,0,0,0,0,0,0,2.8085,2.8127,2.8168,2.8302,2.8347,2.8528,2.8532,2.8554,2.8618,2.8622,2.8752,2.8772,2.8835,2.8963,2.899,2.903,2.8992,2.9287,2.9291,2.9295,2.9264,2.9267,2.927,0,0,0,0,0,2.8071,2.8149,2.817,2.8205,2.8402,2.853,2.8556,2.8628,2.8621,2.8663,2.8739,2.8768,2.9007,2.8974,2.9006,2.9049,2.9285,2.929,2.9295,2.9262,2.9267,2.927,0,0,0,0,0,0,2.8015,2.8168,2.8193,2.8318,2.8411,2.8542,2.8597,2.863,2.8726,2.8725,2.8809,2.8838,2.8949,2.9011,2.8972,2.9155,2.9147,2.9158,2.9111,2.9116,2.9119,2.9103,2.9001,0,0,0,0,0,2.8018,2.8112,2.8239,2.8336,2.8382,2.8481,2.854,2.8588,2.8686,2.8725,2.881,2.8903,2.8999,2.9061,2.9156,2.9272,2.9301,2.9318,2.9321,2.9323,2.9332,2.9398,2.9406,2.9313,2.9313,2.9313,0,0,2.8024,2.8119,2.8172,2.8328,2.8405,2.8498,2.8514,2.8612,2.8681,2.874,2.8857,2.8922,2.9031,2.9148,2.9204,2.9203,2.9364,2.9329,2.9329,2.9338,2.9403,2.9412,2.942,2.9316,2.9316,2.9315,0,0,2.8083,2.8164,2.8254,2.8332,2.845,2.8515,2.8536,2.8663,2.8709,2.8828,2.8874,2.8956,2.912,2.9196,2.9256,2.9341,2.9372,2.937,2.9387,2.945,2.9457,2.9464,2.9495,2.9505,2.9378,2.9378,2.9378,0,2.8075,2.8219,2.8296,2.8392,2.8458,2.8517,2.8608,2.8679,2.882,2.8864,2.8861,2.9068,2.9145,2.9281,2.9302,2.9348,2.9375,2.9356,2.945,2.9458,2.9466,2.9496,2.9507,2.9377,2.9377,2.9377,2.9377,0,2.8203,2.8302,2.8361,2.8499,2.8571,2.8664,2.8753,2.8816,2.8857,2.8922,2.9041,2.9136,2.9251,2.9286,2.9326,2.9428,2.9424,2.9434,2.9428,2.9472,2.9502,2.9514,2.9376,2.9376,2.9376,2.9377,0,0,2.8236,2.8414,2.8435,2.8498,2.8631,2.8708,2.8802,2.8917,2.897,2.9064,2.9145,2.9282,2.9292,2.936,2.9409,2.9464,2.9526,2.9468,2.9472,2.9476,2.9643,2.9635,2.9647,2.9546,2.9548,2.955,2.9634,0,2.8312,2.8486,2.8557,2.8697,2.8789,2.8845,2.8927,2.9016,2.9078,2.9163,2.9231,2.9327,2.9334,2.9375,2.9432,2.9506,2.956,2.9501,2.962,2.9624,2.9593,2.9663,2.9656,2.9731,2.9646,2.9648,2.965,0,2.8426,2.8523,2.8673,2.8795,2.8836,2.8909,2.9019,2.91,2.9201,2.9243,2.9318,2.9364,2.9462,2.9448,2.9585,2.9542,2.9595,2.9638,2.9643,2.9658,2.9641,2.9681,2.9756,2.9768,2.9669,2.9667,2.9666,0,2.8435,2.8604,2.8715,2.8767,2.8912,2.8962,2.9024,2.9124,2.9188,2.9283,2.9325,2.9429,2.9486,2.9565,2.9637,2.962,2.9766,2.9758,2.9803,2.9801,2.9833,2.983,2.9919,2.9864,2.9864,2.9864,2.9863,0,2.8514,2.8603,2.8722,2.879,2.8891,2.897,2.9067,2.9133,2.9221,2.9302,2.9355,2.9429,2.9519,2.9603,2.9659,2.9764,2.9789,2.9824,2.9838,2.9821,2.9816,2.9858,2.9855,2.9867,2.9866,2.9865,2.9865,0,2.8543,2.8626,2.8751,2.8878,2.8911,2.898,2.9088,2.9155,2.9219,2.9321,2.9349,2.9449,2.9552,2.9631,2.9763,2.9801,2.9912,2.9926,2.9878,2.9886,2.9927,2.9922,3.0046,3.0066,2.9996,2.9997,2.9997,0,2.8588,2.8659,2.8793,2.8852,2.8915,2.9008,2.9074,2.9154,2.922,2.934,2.9393,2.9499,2.9589,2.975,2.9834,2.9935,2.9953,2.9989,2.9969,2.9948,2.9955,2.9951,2.9958,2.9992,2.9993,2.9993,2.9993,0,2.8661,2.8698,2.8793,2.8901,2.8979,2.9067,2.9156,2.9201,2.9296,2.9367,2.9474,2.9543,2.9679,2.9784,2.9894,2.9956,2.999,2.9999,3.0015,2.9998,2.9968,2.9986,2.9887,2.9996,2.9996,2.9995,2.9995,2.9995,2.8701,2.8766,2.8871,2.8974,2.9049,2.9132,2.9202,2.9275,2.9366,2.9484,2.9524,2.9634,2.9732,2.9884,2.9946,3.0032,3.0033,3.0055,3.0062,3.0066,3.0065,2.9953,3.0052,3.0052,3.0052,3.0052,3.0052,0,2.8777,2.8847,2.8941,2.9065,2.9145,2.9172,2.9271,2.9336,2.9433,2.9523,2.961,2.9732,2.9834,2.9925,3.003,3.0081,3.0099,3.0106,3.0104,3.0118,3.0058,3.0034,3.009,3.0089,3.0089,3.0089,3.0089,3.0089,2.8826,2.8938,2.8988,2.9136,2.9206,2.9315,2.937,2.9445,2.9517,2.9652,2.9737,2.9796,2.9886,2.9998,3.0092,3.0116,3.0153,3.0156,3.0183,3.0126,3.0122,3.0117,3.0095,3.0163,3.0163,3.0236,3.0237,3.0238]}]]